Home   Weather   Chino   Past weeks
Flag for USA

Past Weather in Chino, California, USA — Yesterday and Last 2 Weeks

Now
68 °F

Clear.


Feels Like: 68 °F
Forecast: 88 / 64 °F
Wind: 6 mph from Southwest

Location: Chino Airport

Current Time: Jul 17, 2019 at 10:10:20 pm

Latest Report: Jul 17, 2019 at 8:53 pm


Visibility: 10 mi

Pressure: 29.93 "Hg

Humidity: 78%

Dew Point: 61 °F

Location of ChinoLocation

Past Weather in Chino — Graph

°F

Chino Temperature Yesterday

Maximum temperature yesterday: 94 °F (at 1:53 pm)
Minimum temperature yesterday: 64 °F (at 5:53 am)
Average temperature yesterday: 77 °F

High & Low Weather Summary for the Past Weeks

 TemperatureHumidityPressure
High98 °F (Jul 12, 1:53 pm)100% (Jul 3, 5:53 am)30.06 "Hg (Jul 3, 5:53 am)
Low59 °F (Jul 3, 5:53 am)19% (Jul 14, 2:53 pm)29.75 "Hg (Jul 12, 5:53 pm)
Average73 °F66%29.93 "Hg
* Reported Jul 2 8:53 pm — Jul 17 8:53 pm, Chino. Weather by CustomWeather, © 2019

Note: Actual official high and low records may vary slightly from our data, if they occured in-between our weather recording intervals... More about our weather records

Advertising

Chino Weather History for the Previous 24 Hours

Scroll right to see more
 ConditionsComfort  
Time TempWeatherWind HumidityBarometerVisibility
8:53 pm
Wed, Jul 17
68 °FClear.6 mph78%29.93 "Hg10 mi
7:53 pm71 °FSunny.13 mph71%29.92 "Hg10 mi
6:53 pm77 °FSunny.16 mph58%29.90 "Hg10 mi
5:53 pm80 °FSunny.17 mph51%29.90 "Hg10 mi
4:53 pm83 °FSunny.17 mph46%29.90 "Hg10 mi
3:53 pm85 °FSunny.16 mph43%29.90 "Hg10 mi
2:53 pm87 °FSunny.13 mph39%29.91 "Hg10 mi
1:53 pm89 °FSunny.14 mph36%29.91 "Hg10 mi
12:53 pm89 °FSunny.8 mph35%29.92 "Hg10 mi
11:53 am87 °FSunny.7 mph30%29.93 "Hg10 mi
10:53 am82 °FSunny.No wind46%29.94 "Hg9 mi
9:53 am76 °FSunny.5 mph62%29.94 "Hg7 mi
8:53 am71 °FSunny.3 mph76%29.93 "Hg6 mi
7:53 am66 °FSunny.3 mph93%29.93 "Hg5 mi
6:53 am63 °FSunny.3 mph100%29.90 "Hg5 mi
5:53 am61 °FFog.3 mph100%29.88 "Hg4 mi
4:53 am60 °FFog.6 mph100%29.86 "Hg5 mi
3:53 am61 °FClear.No wind100%29.85 "Hg7 mi
2:53 am63 °FClear.No wind93%29.85 "Hg8 mi
1:53 am63 °FClear.No wind93%29.86 "Hg8 mi
12:53 am63 °FClear.7 mph93%29.86 "Hg9 mi
11:53 pm
Tue, Jul 16
64 °FClear.3 mph94%29.86 "Hg10 mi
10:53 pm68 °FClear.5 mph82%29.85 "Hg10 mi
Weather by CustomWeather, © 2019

See weather overview